Lid_Strength_Index
8 12 14 12 11 11 11 12 13 11 9 10 11 11 9 7 7 7 6 6 6 5 3 3 2 2 2 1 2 2 2 1 1 2 2 2 2 1 1 2 1 3 3 3
11 14 10 9 9 11 12 13 14 11 9 10 11 12 9 7 7 7 7 6 6 5 4 3 3 3 2 2 2 2 2 1 1 1 1 2 2 1 1 1 2 2 3 3
13 11 8 10 11 13 13 14 13 14 11 10 11 13 11 8 7 6 6 5 5 5 5 5 5 4 4 4 2 2 2 1 1 1 1 1 1 1 2 2 2 2 3 4
11 9 10 11 13 11 15 10 11 13 14 18 11 19 11 9 8 8 7 6 7 7 7 6 5 4 4 4 4 2 1 1 1 1 2 2 3 3 2 2 1 2 3 3
13 11 12 13 12 10 13 10 11 12 14 15 15 17 13 10 11 9 8 8 8 8 7 7 6 5 4 3 3 4 2 2 1 1 2 2 3 2 1 2 2 2 2 3
11 7 9 10 9 9 9 11 12 12 14 20 16 17 15 12 10 9 10 10 10 9 8 8 7 6 5 4 3 2 3 2 1 2 2 2 2 2 2 2 2 2 3 3
13 12 9 9 12 10 11 14 20 21 21 21 14 17 15 10 9 9 12 12 11 10 9 9 8 7 7 6 4 3 2 2 2 2 2 2 2 2 2 2 2 2 2 3
17 18 12 9 12 13 13 14 19 23 22 19 14 19 15 10 11 11 12 12 12 11 10 10 9 8 7 6 5 4 2 2 2 2 2 2 2 2 2 2 2 2 2 3
17 17 12 12 12 10 14 16 12 17 16 20 18 15 12 13 13 13 13 13 12 11 11 10 9 8 8 7 5 4 3 2 2 2 2 2 2 2 2 2 2 2 2 2
16 17 13 13 12 11 12 11 18 17 22 23 19 18 18 16 15 13 13 13 12 11 11 10 9 9 8 7 5 4 3 2 2 2 2 2 2 2 2 1 2 2 2 2
15 16 15 13 15 16 15 15 15 16 17 21 22 20 15 14 13 13 13 12 12 11 11 10 9 8 8 7 6 5 4 3 2 2 2 2 2 2 2 2 2 2 1 2
13 14 17 16 13 13 15 15 16 18 20 18 19 18 12 13 13 14 14 13 11 11 11 10 9 9 8 8 6 5 4 3 2 2 2 2 2 2 2 2 2 1 2 3
12 15 18 16 15 13 15 14 14 15 15 17 19 17 11 11 12 13 13 12 12 12 11 11 10 9 8 8 7 6 4 3 2 2 2 2 2 2 2 2 2 2 2 4
9 13 15 18 16 14 16 14 13 15 18 18 17 16 13 12 14 13 12 12 11 12 13 12 10 10 8 8 8 6 4 3 2 2 3 3 2 3 3 4 4 4 4 4
11 16 14 15 13 13 13 14 14 15 14 17 16 15 13 13 13 13 12 12 13 13 13 11 11 11 9 9 9 8 6 3 2 3 3 6 7 7 5 6 8 7 6 5
9 15 13 15 14 13 15 14 13 13 12 13 13 14 10 10 12 12 12 13 13 13 12 11 11 11 11 10 9 8 7 4 2 3 5 5 7 9 10 10 9 9 10 10
12 13 15 17 13 13 17 14 13 12 11 11 14 11 10 10 10 10 10 10 10 11 11 10 10 10 10 9 9 8 7 5 3 5 6 6 7 8 9 9 10 11 11 10
12 12 13 16 14 20 14 11 11 12 11 9 10 9 9 9 9 9 8 9 9 9 9 8 8 8 8 8 8 7 6 6 5 7 7 7 8 9 8 9 9 10 11 12
9 11 15 17 16 14 13 11 12 12 12 9 9 9 9 10 9 10 8 8 8 8 7 7 6 6 6 6 6 6 6 6 5 6 7 8 9 9 9 11 11 11 12 13
9 10 13 15 18 19 12 10 9 9 14 9 9 9 10 10 12 10 7 7 7 6 6 6 6 6 6 5 5 5 5 5 5 6 8 8 9 10 11 11 11 12 12 13
14 13 15 15 16 14 10 8 8 14 12 8 8 8 8 10 9 8 6 6 6 6 6 5 6 7 6 5 5 6 5 5 4 6 7 8 9 10 11 12 12 13 13 13
14 15 15 14 17 18 8 8 11 9 7 8 7 7 7 7 7 7 6 6 5 5 5 5 6 6 5 5 6 6 5 4 5 6 7 8 10 10 11 12 13 13 13 13
14 11 13 12 13 9 7 8 7 6 7 7 7 6 6 6 6 6 6 5 5 5 5 4 4 5 4 4 4 6 4 3 6 7 9 10 11 12 12 12 12 12 12 12
10 8 11 11 9 8 8 7 7 6 6 6 6 6 6 7 6 6 6 5 5 4 4 4 4 4 5 4 4 3 3 4 6 9 11 11 12 12 12 11 11 11 11 12
10 8 10 10 9 8 7 7 6 6 5 6 5 5 5 5 6 5 5 5 4 4 4 3 4 5 6 5 4 3 4 6 8 9 10 11 10 11 12 12 12 12 12 11
9 9 10 11 8 8 8 6 5 6 6 6 6 6 5 5 6 5 5 4 5 5 4 5 7 8 8 7 5 4 5 7 8 10 10 10 11 11 11 12 13 12 12 12